ARIANE 3 DEB, 27027

Orbit data source: Space-Track

ARIANE 3 DEB, 27027 is space debris in HEO originally from a launch on Thu, 08 Sep 1988 UTC launched from the French Guiana (FRGUI). Debris objects in space refer to the collection of defunct objects orbiting the Earth. Examples of debris include non-operational satellites, rocket bodies, and fragments generated from explosions, collisions, or faulty payload assembly.

Loading next visibility...
Identifier
27027, 1988-081K
Orbit
HEO
Country
Flag of FRFR
Related business
Manufacturer
Unknown
Mission
Spacecraft
Bus & Motor
Unknown
Mass
Unknown
Launch date (UTC)
1988-09-08 (37 years ago)
Launch vehicle
Unknown
Launch site
French Guiana (FRGUI)
Object type
Payload
Rocket body
Debris
Shape & HBR
Unknown shape, 0.3 m
Radar Cross Section
Medium (>0.1 m² and <1 m²)

Expand to show TLE details & history
Last TLE update: 13 hours ago

TLE from 13 hours ago
0 ARIANE 3 DEB
1 27027U 88081K   25307.83054387  .00000214  00000-0  87551-2 0  9993
2 27027   8.8016  13.9398 7160257 240.7685  29.0449  2.21482120214249
Epoch: 2025-11-03T19:55Z
TLE epoch observation values (Epoch: 2025-11-03T19:55:58.990Z)
Latitude
-0.34459°
Longitude
29.19776°
Altitude
11,524.426 km
Speed
5.338 km/s
True Right ascension
00h 46m 04s
True Declination
0° 20' 38"
Sunlit
Object was in daylight at epoch
Visualization orbit readout
Latitude
Unknown
Longitude
Unknown
Altitude
Unknown
Speed
Unknown
Apparent Right ascension
Unknown
Apparent Declination
Unknown
Sunlit
N/A
Visualization observer readout
Local Sidereal Time
05:01:00
Azimuth
Unknown
Elevation
Unknown
Doppler factor
Unknown
Orbital elements
Apogee altitude
36,291.724 km
Perigee altitude
683.03 km
Semi-major axis
24,865.514 km
Eccentricity
0.71603
Inclination
8.8016°
RAAN
13.9398°
Arg. of periapsis
240.7685°
True anomaly
116.59163°
Mean anomaly
29.0449°
Eccentric anomaly
66.73402°
Mean motion
0.55354 °/min
Orbital period
650.36 mins
BSTAR
0.0087551
Loading maneuver chart data...
Computing Atmospheric mass density...
Loading historical data...
Loading historical data...
Loading historical data...
Loading historical data...
Loading historical data...
Loading historical data...
Loading historical data...

Documentation

Showing up to 5 results
|